Flag for Aruba Weather past 2 weeks in Oranjestad, Aruba

Now
86 °F

Passing clouds.


Feels Like: 99 °F
Forecast: N/A
Wind: 28 mph from East

Location: Queen Beatrix Airport - Aruba

Current Time: Jul 4, 2015 at 5:32:17 PM

Latest Report: Jul 4, 2015 at 5:00 PM


Visibility: N/A

Pressure: 29.83 "Hg

Humidity: 79%

Dew point: 79 °F

Location of OranjestadLocation

Historic Weather in Oranjestad — Graph

°F

Oranjestad temperature yesterday

Maximum temperature yesterday: 90 °F (at 1:00 PM)
Minimum temperature yesterday: 81 °F (at 12:00 AM)
Average temperature yesterday: 84 °F

Past Weeks' High & Low Weather Summary

 TemperatureHumidityPressure
High91 °F (Jun 24, 2:00 PM)100% (Jun 21, 7:00 PM)29.98 "Hg (Jun 21, 7:00 PM)
Low36 °F (Jun 21, 7:00 PM)67% (Jun 20, 12:00 PM)29.80 "Hg (Jul 3, 4:00 PM)
Average83 °F80%29.92 "Hg
* Reported Jun 19 4:00 PM — Jul 4 4:00 PM, Oranjestad, Weather by CustomWeather, © 2015

Note: Actual official high and low records may vary slightly from our data, if they occured in-between our weather recording intervals... More about our weather records

Advertising

Oranjestad weather history for previous 24 hours

 ConditionsComfort  
Time TempWeatherWind HumidityBarometerVisibility
4:00 PM
Sat, Jul 4
88 °FScattered clouds.26 mph75%29.83 "HgN/A
3:00 PM90 °FScattered clouds.28 mph71%29.86 "HgN/A
2:00 PM90 °FScattered clouds.28 mph71%29.86 "HgN/A
1:00 PM88 °FScattered clouds.26 mph75%29.89 "HgN/A
12:00 PM88 °FScattered clouds.28 mph75%29.89 "HgN/A
11:00 AM90 °FScattered clouds.24 mph71%29.92 "HgN/A
10:00 AM88 °FPassing clouds.26 mph70%29.92 "HgN/A
9:00 AM86 °FPassing clouds.26 mph75%29.92 "HgN/A
8:00 AM82 °FPassing clouds.22 mph84%29.92 "HgN/A
7:00 AM81 °FPassing clouds.20 mph89%29.89 "HgN/A
6:00 AM81 °FPassing clouds.18 mph84%29.89 "HgN/A
5:00 AM81 °FPassing clouds.21 mph89%29.86 "HgN/A
4:00 AM81 °FPassing clouds.21 mph89%29.86 "HgN/A
3:00 AM81 °FPassing clouds.21 mph89%29.86 "HgN/A
1:00 AM81 °FPassing clouds.22 mph89%29.86 "HgN/A
12:00 AM81 °FPassing clouds.22 mph89%29.89 "HgN/A
11:00 PM
Fri, Jul 3
82 °FPassing clouds.22 mph84%29.89 "HgN/A
10:00 PM82 °FPassing clouds.21 mph84%29.86 "HgN/A
9:00 PM82 °FPassing clouds.22 mph84%29.86 "HgN/A
8:00 PM82 °FPassing clouds.23 mph84%29.83 "HgN/A
7:00 PM82 °FPassing clouds.24 mph84%29.80 "HgN/A
6:00 PM84 °FPassing clouds.28 mph79%29.80 "HgN/A
5:00 PM86 °FPassing clouds.25 mph79%29.80 "HgN/A
Weather by CustomWeather, © 2015

See weather overviewHow to use our weather pages